Weather History for Payerne, Switzerland

Change the Weather History Date:

Sunday, October 6, 2013

  Actual Average (LSZB) Record (LSZB)
Temperature  
Mean Temperature 58 °F -  
Max Temperature 63 °F 53 °F 75 °F (2012)
Min Temperature 53 °F 39 °F 35 °F (1999)
Degree Days  
Heating Degree Days 7    
Growing Degree Days 8 (Base 50)    
Moisture  
Dew Point 53 °F    
Average Humidity 85    
Maximum Humidity 100    
Minimum Humidity 68    
Precipitation  
Precipitation 0.00 in - - ()
Sea Level Pressure  
Sea Level Pressure 30.21 in    
Wind  
Wind Speed 3 mph ()    
Max Wind Speed 10 mph    
Max Gust Speed -    
Visibility 7.0 miles    
Events      
Averages and records for this station are not official NWS values.
T = Trace of Precipitation, MM = Missing Value Source: Averaged Metar Reports

Daily Weather History Graph

Daily Weather History Graph

Search for Another Location

Airport:

Trip Planner

Search our weather history database for the weather conditions in past years. The results will help you decide how hot, cold, wet, or windy it might be!

Date:

Astronomy

Oct. 06, 2013 Rise Set
Actual Time 7:37 AM CEST 7:02 PM CEST
Civil Twilight 7:07 AM CEST 7:32 PM CEST
Nautical Twilight 6:32 AM CEST 8:07 PM CEST
Astronomical Twilight 5:56 AM CEST 8:42 PM CEST
Moon 9:12 AM CEST (10/6) 7:41 PM CEST (10/6)
Length of Visible Light 12h 25m
Length of Day
11h 24m
New Moon, 2% of the Moon is Illuminated
Oct 6
New Moon
Oct 12
First Quarter
Oct 19
Full
Oct 27
Last Quarter
Nov 3
New

Hourly Weather History & Observations

Time (CEST) Temp. Dew Point Humidity Pressure Visibility Wind Dir Wind Speed Gust Speed Precip Events Conditions
12:00 AM 55 °F 53 °F 88% 30.22 in - SSW 5.8 mph - -  
12:50 AM 55.4 °F 51.8 °F 88% 30.21 in 6.2 mi SSW 2.3 mph - N/A   Overcast
1:00 AM 54 °F 53 °F 94% 30.21 in - SW 4.6 mph - -  
1:50 AM 55.4 °F 53.6 °F 94% 30.21 in 6.2 mi Calm Calm - N/A   Overcast
2:00 AM 54 °F 53 °F 93% 30.22 in 12 mi WSW 2.3 mph - -   Partly Cloudy
2:50 AM 55.4 °F 53.6 °F 94% 30.21 in 6.2 mi South 3.5 mph - N/A   Overcast
3:00 AM 54 °F 53 °F 93% 30.22 in - SW 2.3 mph - -  
3:50 AM 55.4 °F 53.6 °F 94% 30.21 in 6.2 mi South 3.5 mph - N/A   Overcast
4:50 AM 53.6 °F 53.6 °F 100% 30.18 in 6.2 mi South 2.3 mph - N/A   Overcast
5:50 AM 53.6 °F 53.6 °F 100% 30.18 in 6.2 mi South 2.3 mph - N/A   Overcast
6:00 AM 54 °F 52 °F 92% 30.19 in - South 2.3 mph - -  
6:50 AM 55.4 °F 53.6 °F 94% 30.18 in 6.2 mi South 2.3 mph - N/A   Overcast
7:00 AM 54 °F 52 °F 92% 30.20 in - SSE 1.2 mph - -  
7:50 AM 55.4 °F 53.6 °F 94% 30.21 in 6.2 mi Calm Calm - N/A   Overcast
8:00 AM 54 °F 52 °F 92% 30.21 in 12 mi Calm Calm - -   Mostly Cloudy
8:50 AM 55.4 °F 53.6 °F 94% 30.21 in 6.2 mi Variable 1.2 mph - N/A   Mostly Cloudy
9:00 AM 54 °F 53 °F 95% 30.21 in - SSW 1.2 mph - -  
9:50 AM 55.4 °F 53.6 °F 94% 30.21 in 6.2 mi Variable 2.3 mph - N/A   Mostly Cloudy
10:00 AM 56 °F 53 °F 86% 30.21 in - Calm Calm - -  
10:50 AM 57.2 °F 53.6 °F 88% 30.21 in 6.2 mi Variable 2.3 mph - N/A   Overcast
11:50 AM 59.0 °F 53.6 °F 82% 30.21 in 6.2 mi NNE 3.5 mph - N/A   Overcast
12:00 PM 58 °F 53 °F 79% 30.21 in - North 4.6 mph - -  
12:50 PM 59.0 °F 53.6 °F 82% 30.21 in 6.2 mi ENE 4.6 mph - N/A   Mostly Cloudy
1:00 PM 60 °F 54 °F 74% 30.20 in - NNE 5.8 mph - -  
2:00 PM 61 °F 54 °F 71% 30.18 in 13 mi NE 5.8 mph - -   Mostly Cloudy
2:50 PM 62.6 °F 53.6 °F 72% 30.18 in 6.2 mi ENE 6.9 mph - N/A   Mostly Cloudy
3:00 PM 61 °F 53 °F 68% 30.17 in - NE 6.9 mph - -  
3:50 PM 62.6 °F 53.6 °F 72% 30.18 in 6.2 mi ENE 9.2 mph - N/A   Mostly Cloudy
4:00 PM 62 °F 54 °F 68% 30.17 in - NE 6.9 mph - -  
5:50 PM 60.8 °F 53.6 °F 77% 30.18 in 6.2 mi ENE 9.2 mph - N/A   Mostly Cloudy
6:00 PM 60 °F 53 °F 69% 30.18 in - ENE 10.4 mph - -  
6:50 PM 59.0 °F 53.6 °F 82% 30.21 in 6.2 mi NE 5.8 mph - N/A   Mostly Cloudy
7:00 PM 58 °F 52 °F 75% 30.20 in - ENE 4.6 mph - -  
8:00 PM 57 °F 51 °F 74% 30.22 in - ENE 5.8 mph - -  
8:50 PM 57.2 °F 51.8 °F 82% 30.24 in 6.2 mi ENE 5.8 mph - N/A   Overcast
9:50 PM 57.2 °F 51.8 °F 82% 30.24 in 6.2 mi ENE 4.6 mph - N/A   Overcast
10:00 PM 57 °F 51 °F 76% 30.23 in - NE 3.5 mph - -  
10:50 PM 57.2 °F 51.8 °F 82% 30.24 in 6.2 mi NE 5.8 mph - N/A   Mostly Cloudy
11:50 PM 57.2 °F 51.8 °F 82% 30.24 in 6.2 mi NE 5.8 mph - N/A   Overcast